METEOR 2-5 DEB, 45509

Orbit data source: Space-Track

METEOR 2-5 DEB, 45509 is space debris in LEO originally from a launch on Wed, 31 Oct 1979 UTC launched from the Plesetsk Missile And Space Complex (PKMTR). Debris objects in space refer to the collection of defunct objects orbiting the Earth. Examples of debris include non-operational satellites, rocket bodies, and fragments generated from explosions, collisions, or faulty payload assembly.

Loading next visibility...
Identifier
45509, 1979-095CR
Orbit
LEO
Country
Flag of CISCIS
Related business
Manufacturer
Unknown
Mission
Spacecraft
Bus & Motor
Unknown
Mass
Unknown
Launch date (UTC)
1979-10-31 (46 years ago)
Launch vehicle
Unknown
Launch site
Plesetsk Missile And Space Complex (PKMTR)
Object type
Payload
Rocket body
Debris
Shape & HBR
Unknown shape, 0.1 m
Radar Cross Section
Small (<0.1 m²)

Expand to show TLE details & history
Last TLE update: 4 days ago

TLE from 4 days ago
0 METEOR 2-5 DEB
1 45509U 79095CR  25351.63184918  .00006621  00000-0  20258-2 0  9993
2 45509  81.1896 305.1998 0006277  20.9726 157.9393 14.41711397619147
Epoch: 2025-12-17T15:09Z
TLE epoch observation values (Epoch: 2025-12-17T15:09:51.769Z)
Latitude
0.93702°
Longitude
171.0907°
Altitude
759.823 km
Speed
7.472 km/s
True Right ascension
08h 20m 13s
True Declination
0° 55' 53"
Sunlit
Object was in full shadow at epoch
Visualization orbit readout
Latitude
Unknown
Longitude
Unknown
Altitude
Unknown
Speed
Unknown
Apparent Right ascension
Unknown
Apparent Declination
Unknown
Sunlit
N/A
Visualization observer readout
Local Sidereal Time
12:23:24
Azimuth
Unknown
Elevation
Unknown
Doppler factor
Unknown
Orbital elements
Apogee altitude
754.458 km
Perigee altitude
745.51 km
Semi-major axis
7,128.121 km
Eccentricity
0.00063
Inclination
81.1896°
RAAN
305.1998°
Arg. of periapsis
20.9726°
True anomaly
157.9663°
Mean anomaly
157.9393°
Eccentric anomaly
157.9528°
Mean motion
3.60646 °/min
Orbital period
99.82 mins
BSTAR
0.0020258
Loading maneuver chart data...
Computing Atmospheric mass density...

Documentation

Showing up to 5 results
|